Theta_e
320 320 319 318 318 319 319 318 319 319 319 319 319 319 319 320 320 321 321 322 322 323 323 324 325 325 325 326 327 326 324 317 316 312 306 310 328 332 335 332 335 335 333 308 305 304 301 299 303 300 302 303 303 302 303 305 301 298 294 287 289 285 289 292 292 290 292 295 293 294 293 294 293 296 299 298 297 294 295 296 297 316 316 316 317 315 322 326
320 319 319 318 318 318 318 318 318 318 318 319 318 318 319 319 319 319 321 321 321 322 323 323 324 325 326 325 325 324 318 313 311 308 305 324 333 333 334 335 334 334 326 307 302 300 300 301 298 299 299 302 303 302 305 303 303 295 289 288 290 286 292 293 293 292 293 294 295 295 292 296 294 295 297 295 294 295 295 295 302 310 315 318 319 322 324 325
320 319 318 318 319 318 317 318 318 317 317 317 317 317 318 318 318 319 319 320 321 321 322 324 324 324 325 326 324 323 318 310 306 304 307 329 333 332 334 336 334 334 312 308 306 302 302 301 301 298 298 298 297 300 300 300 301 295 291 289 288 289 294 294 294 296 293 295 294 294 293 293 295 295 297 295 292 293 293 294 296 307 311 313 315 320 323 324
319 319 318 318 318 318 317 317 317 317 317 317 316 317 317 317 318 318 319 320 320 321 321 323 324 324 324 325 325 316 312 304 300 305 315 330 330 334 335 334 334 328 314 309 307 307 303 301 298 298 298 296 295 299 298 299 297 296 292 287 293 291 294 296 294 295 293 296 295 294 293 294 294 295 295 291 293 292 292 294 298 299 312 315 317 319 321 322
319 319 318 318 318 317 317 317 317 316 316 316 316 316 316 316 317 318 318 319 320 320 321 322 323 324 324 324 323 316 303 293 295 313 317 330 331 332 333 333 333 315 314 312 306 304 304 302 296 298 295 292 295 295 295 297 296 292 294 292 292 292 295 296 294 293 293 292 294 291 294 293 295 296 292 293 290 288 293 296 297 300 318 317 317 319 320 320
319 318 318 317 317 317 316 316 316 316 316 316 316 316 316 316 317 317 318 319 319 320 321 322 323 323 324 324 313 314 299 285 301 315 326 329 329 334 331 331 333 311 306 305 305 303 301 299 296 296 293 293 293 293 293 295 299 293 292 293 293 293 295 295 295 293 292 293 292 292 294 295 294 295 292 292 291 292 292 295 298 298 319 321 321 319 318 319
319 318 317 317 316 316 316 316 316 316 316 316 315 316 316 316 316 317 318 319 319 320 320 321 322 323 323 322 311 304 298 297 312 314 326 332 333 330 331 330 328 309 307 305 303 302 298 296 295 293 290 291 291 291 295 296 292 289 292 293 295 294 296 295 296 292 291 293 294 294 294 295 292 294 294 292 293 291 296 295 295 297 318 320 318 318 319 319
319 318 318 317 316 316 316 315 315 315 315 315 315 315 316 316 316 317 317 318 319 320 321 321 322 323 322 316 305 300 300 300 310 316 325 331 320 327 322 314 311 309 306 304 302 301 298 296 296 295 291 290 291 294 295 294 293 292 293 293 295 294 295 293 292 292 292 293 293 294 295 294 292 294 293 294 295 295 295 297 297 302 316 318 318 317 317 317
319 318 317 316 315 315 315 315 315 315 316 315 315 315 316 316 317 317 317 318 319 320 320 321 322 322 321 312 299 294 296 307 316 315 319 313 309 313 311 312 310 309 306 304 305 303 301 297 297 295 293 292 293 294 293 293 291 291 293 292 294 295 295 293 294 292 293 295 293 295 294 292 291 293 295 296 296 295 296 297 298 306 314 316 317 317 317 316
318 317 316 316 315 315 315 315 314 315 315 315 314 315 315 316 317 317 317 318 319 319 320 321 322 322 315 304 296 291 301 312 314 312 313 309 308 308 311 311 308 305 306 305 302 301 301 298 300 299 297 294 294 295 292 292 290 292 292 292 293 295 295 294 295 295 294 295 292 294 292 294 294 295 290 291 295 294 297 297 297 304 310 314 315 316 316 316
318 317 317 316 315 315 315 314 313 314 314 314 314 314 316 316 317 317 318 318 319 319 320 321 322 319 313 299 293 291 311 314 315 309 309 308 309 308 311 309 306 308 305 305 304 302 302 301 302 299 299 295 296 294 294 296 295 294 293 292 293 291 295 293 293 296 294 296 291 293 293 292 293 293 293 295 294 295 297 295 297 298 303 308 311 313 314 315
318 317 317 316 315 315 315 314 313 313 313 314 314 315 316 316 317 317 317 318 318 320 320 321 321 315 306 299 293 295 310 312 310 308 310 310 309 309 309 307 306 307 305 304 305 307 302 303 302 299 294 298 293 295 296 296 296 294 294 292 291 290 293 295 294 294 294 295 294 294 292 291 293 292 297 296 294 294 296 295 296 296 297 301 305 309 309 312
317 317 317 316 315 314 313 313 313 313 314 314 314 315 315 316 316 317 317 318 319 319 320 321 320 316 304 294 299 309 313 312 309 309 310 308 309 308 308 307 307 306 304 303 302 304 304 301 299 299 299 293 293 291 295 296 295 294 292 290 290 287 287 291 292 293 295 295 292 293 284 283 288 296 295 293 294 294 293 293 294 295 295 297 298 303 306 308
317 317 316 315 315 314 313 313 313 314 314 314 314 315 316 316 316 316 317 318 320 320 321 321 312 310 300 291 307 312 313 314 311 310 310 310 308 309 307 308 308 304 307 306 303 302 304 303 300 300 298 295 295 301 296 293 291 291 292 288 286 285 287 290 293 293 293 295 292 291 283 283 285 288 291 292 292 295 294 293 293 294 293 293 295 297 301 303
317 316 315 314 313 313 313 313 314 313 314 314 314 315 315 316 316 317 318 318 320 321 321 318 309 302 294 301 309 312 325 314 309 308 311 310 306 305 306 307 306 303 302 302 303 302 302 301 299 296 296 297 297 294 289 286 287 287 286 283 282 284 283 289 293 292 292 295 291 291 284 286 289 291 292 293 292 294 294 292 292 292 293 294 293 295 297 300
316 315 314 313 313 313 313 313 313 314 315 315 315 315 315 316 316 318 319 318 320 320 316 314 314 297 293 294 309 320 311 305 306 309 311 314 309 306 305 303 306 304 304 303 305 303 301 300 297 294 296 296 290 286 284 285 286 284 283 281 286 283 283 289 295 293 293 294 294 291 284 285 290 292 293 291 294 294 293 292 292 293 294 295 295 295 297 297
315 314 314 313 313 313 312 312 313 314 316 315 315 315 316 316 318 319 320 320 317 315 314 306 311 308 292 298 306 306 301 305 311 310 310 310 309 306 305 304 302 304 303 304 302 302 300 298 296 296 291 290 287 288 285 280 281 288 284 285 282 284 284 284 289 292 291 293 291 292 289 286 289 291 291 292 294 294 293 293 293 294 294 295 295 295 296 297
315 315 314 313 313 313 312 313 314 315 316 315 315 315 314 317 320 319 318 316 313 312 311 314 302 297 293 300 298 300 306 306 309 308 306 308 306 304 302 301 300 299 298 300 300 299 298 295 292 291 289 289 290 285 282 279 285 282 285 285 285 285 284 285 288 291 293 291 291 289 289 290 293 294 294 294 292 294 294 294 295 295 294 295 295 295 295 297
315 315 314 313 313 314 314 315 316 316 316 316 317 318 319 319 315 310 313 311 297 294 294 296 292 286 286 294 300 307 309 309 309 307 307 308 308 305 304 302 301 300 296 293 296 298 294 293 293 288 287 287 288 289 284 287 286 286 286 282 281 285 285 286 286 289 292 291 290 287 289 290 291 291 293 293 292 292 294 294 294 294 294 294 294 295 295 296
314 316 315 314 315 316 316 316 316 316 316 311 309 311 307 302 301 301 300 304 298 293 295 297 296 296 301 301 304 307 310 308 302 303 307 308 307 305 302 301 300 297 294 294 295 297 293 288 288 285 288 289 288 289 289 289 288 286 286 284 284 284 286 288 289 291 290 289 287 289 288 288 290 292 293 294 291 290 290 292 294 295 295 295 295 296 296 296
315 316 316 315 316 317 317 317 317 316 316 310 309 303 294 296 291 289 293 297 298 298 299 297 296 299 302 304 304 304 302 301 303 303 307 310 305 303 299 298 293 293 294 292 294 295 292 287 287 289 289 288 290 288 288 288 287 288 285 284 285 285 287 288 291 291 289 289 284 284 285 288 289 290 291 291 288 290 291 291 292 293 294 295 295 296 296 298
317 318 317 317 317 317 317 317 317 317 316 310 309 303 301 298 299 299 294 290 295 300 301 301 300 301 303 303 305 305 302 298 301 302 307 307 303 299 297 294 292 292 293 293 293 292 288 287 290 291 290 289 288 288 288 288 287 285 286 283 283 286 285 289 288 289 290 289 287 283 286 290 290 291 292 291 292 293 292 292 294 294 293 294 295 295 296 296
318 318 318 318 318 318 318 318 317 316 306 304 302 302 303 307 304 302 298 289 291 299 298 299 300 299 301 302 304 306 297 294 294 300 303 306 301 298 296 293 292 291 292 293 291 286 287 286 290 291 289 289 287 287 288 287 285 283 284 285 284 282 287 285 286 286 290 289 286 285 287 290 291 289 291 293 292 291 293 293 294 294 294 294 295 296 296 296
318 318 319 318 318 318 318 318 317 312 306 303 302 303 307 307 307 307 300 289 289 297 299 299 299 299 299 301 304 301 295 295 297 298 304 302 299 298 296 292 291 291 291 291 291 290 286 289 291 289 289 289 289 287 288 287 287 284 282 282 282 287 288 286 289 288 285 289 286 286 285 287 282 283 285 286 287 290 290 291 291 293 294 296 296 295 295 297
319 318 319 319 318 319 318 317 308 306 305 303 303 304 306 305 306 306 295 290 288 293 300 299 301 300 303 307 307 301 298 299 300 301 303 302 297 296 295 294 291 291 290 290 289 289 287 288 290 290 289 288 289 288 286 287 284 284 285 285 287 286 288 289 286 286 280 280 282 286 279 275 279 282 284 288 285 287 286 287 289 290 291 291 292 295 295 294
317 318 319 318 318 319 319 309 307 307 303 301 302 307 307 304 303 305 291 284 282 287 293 291 300 297 307 300 303 301 299 294 300 302 303 301 304 298 296 294 292 291 289 290 290 286 287 292 291 291 289 288 288 286 288 287 282 284 286 287 286 286 287 286 288 284 279 279 285 284 280 278 280 284 286 285 283 286 289 288 291 291 291 289 292 293 291 293
315 317 319 318 319 319 310 306 310 306 301 301 307 306 306 306 306 302 290 280 278 288 287 295 294 295 302 300 301 296 286 289 303 302 301 304 302 302 295 291 292 292 292 290 287 288 291 292 289 288 288 287 287 288 289 286 285 283 284 287 287 288 288 287 283 284 279 279 282 281 277 277 280 283 283 282 286 287 287 289 290 290 289 290 290 291 291 294
313 314 317 319 319 317 311 309 307 305 304 305 305 305 305 304 304 295 285 275 274 292 289 289 295 302 302 300 298 291 292 298 294 297 301 303 301 297 293 291 293 292 292 290 284 287 291 289 289 287 284 284 286 284 289 285 283 284 288 288 286 288 286 283 282 282 282 281 280 277 284 281 277 281 284 284 285 284 287 289 288 289 289 289 288 289 291 293
312 313 315 319 318 318 313 309 306 304 307 306 306 305 307 302 294 289 279 273 287 287 301 291 303 301 296 298 294 294 294 296 291 296 300 301 302 297 292 291 291 290 290 291 287 288 291 290 290 289 286 285 286 289 288 289 290 291 289 288 287 286 284 281 280 285 279 279 275 279 283 277 277 279 282 281 285 284 284 287 288 289 291 293 289 290 294 295
312 312 314 317 317 315 313 311 308 309 306 307 306 306 303 295 292 284 277 270 291 283 292 293 293 291 294 292 290 293 294 294 295 297 297 297 298 297 297 294 292 290 289 289 288 289 291 294 293 290 289 287 288 289 288 290 290 290 288 288 285 282 281 278 278 277 278 274 275 279 281 280 277 279 281 284 286 283 285 285 286 290 292 294 294 294 294 294
311 311 313 316 313 314 314 309 310 308 308 306 306 305 297 290 282 278 270 279 289 289 290 290 289 294 292 290 288 289 293 293 296 296 293 296 295 293 293 293 292 287 285 284 287 286 289 290 292 291 292 289 289 290 288 288 288 290 284 279 281 281 279 277 272 275 274 268 273 277 280 280 275 276 281 283 284 285 289 290 290 292 294 294 295 295 294 293
310 311 313 314 314 314 310 307 310 309 308 307 304 298 292 281 285 277 275 291 285 286 285 285 288 289 291 290 287 289 291 293 293 293 292 290 290 290 289 287 288 282 281 283 283 285 287 288 288 292 293 291 287 289 290 287 285 286 283 282 277 273 271 273 270 275 271 272 280 278 280 280 280 284 286 287 287 286 285 289 292 291 294 294 293 295 294 291
311 310 311 312 313 311 312 311 309 308 308 306 299 293 286 279 274 281 279 283 281 288 286 290 289 290 289 289 287 289 290 289 292 292 292 291 291 289 290 289 288 287 282 281 284 283 284 282 288 290 292 293 291 288 285 286 286 284 285 278 274 271 270 267 263 265 268 275 277 279 281 280 279 281 290 291 292 288 287 287 286 288 291 294 293 292 292 292
311 310 306 310 309 313 312 309 308 311 308 303 296 290 282 274 275 289 283 283 285 289 289 287 289 288 290 287 287 291 287 288 291 291 292 289 288 287 289 290 289 286 281 281 284 282 276 279 286 287 287 290 290 291 291 288 287 287 283 284 280 271 268 266 265 271 273 272 275 278 277 275 275 285 288 289 290 288 287 287 286 287 288 289 289 290 292 292
310 309 308 310 311 313 311 310 310 310 305 300 293 286 280 279 277 278 281 285 287 288 287 290 289 287 286 285 288 290 287 287 290 290 289 288 285 285 287 288 289 284 285 285 282 279 282 280 282 290 289 291 291 291 290 287 286 285 281 281 277 278 276 275 269 270 268 271 273 275 277 277 282 284 285 288 288 288 288 287 287 291 289 287 288 290 290 291
307 304 309 308 309 310 312 311 311 310 303 297 288 283 281 283 278 283 284 290 290 286 286 288 285 285 282 284 288 289 291 288 289 288 287 287 287 287 286 288 290 290 287 284 283 281 281 280 286 290 289 292 292 290 290 289 283 283 284 281 281 281 279 272 273 277 274 271 275 272 278 281 281 284 289 288 286 288 286 287 286 286 286 285 287 287 287 290
299 302 301 306 309 312 311 311 311 308 302 294 287 282 285 285 287 286 295 291 290 290 287 283 283 282 281 281 283 286 288 290 287 285 283 286 286 286 286 288 291 291 291 288 283 284 283 278 285 287 287 290 289 289 288 288 285 285 281 283 285 285 282 278 273 266 267 271 274 274 277 277 276 278 281 284 287 288 283 284 285 288 286 287 288 287 287 289
297 298 300 301 308 312 311 311 310 306 300 292 285 288 287 287 292 293 295 294 291 290 285 284 284 285 282 282 282 285 287 287 286 286 283 287 283 290 288 288 290 293 293 289 287 286 285 280 282 286 286 288 289 292 290 289 289 284 281 285 286 278 278 279 272 271 268 265 268 273 275 276 279 282 281 284 284 286 286 284 285 289 289 290 289 291 291 291
296 294 291 298 309 312 310 311 308 301 295 287 285 286 290 288 292 291 296 295 293 288 287 286 284 286 285 283 284 285 287 283 286 284 283 284 283 287 291 291 289 292 293 290 286 284 287 280 279 286 287 288 288 287 284 285 290 289 288 286 284 280 276 276 277 272 273 268 266 272 274 280 280 280 283 287 285 287 286 284 287 288 291 290 290 290 294 295
292 289 287 301 309 311 311 310 303 298 291 285 287 286 292 289 292 294 294 297 292 289 288 288 288 286 287 286 287 285 286 285 286 284 284 285 286 289 289 292 290 289 291 291 289 288 284 282 276 282 284 286 285 285 285 287 285 285 286 283 285 282 283 279 279 275 275 263 264 268 271 275 277 283 285 288 288 286 287 287 288 289 288 288 289 288 291 292
291 287 289 309 310 310 308 303 297 291 287 289 291 290 292 291 293 295 297 299 296 297 291 289 288 287 287 287 287 288 285 284 286 285 284 285 286 282 289 291 291 289 288 289 288 286 281 281 276 281 283 281 282 285 287 289 291 289 288 285 287 282 278 275 276 279 272 274 271 266 274 279 280 284 287 285 284 285 285 288 288 286 287 288 293 290 291 292
284 281 288 309 309 307 301 293 292 295 290 287 286 291 291 299 293 294 295 297 296 294 296 292 291 289 288 289 288 288 285 284 284 284 284 285 287 286 291 291 291 291 290 285 288 287 287 280 280 276 282 287 286 286 286 287 287 287 286 285 288 286 282 276 273 274 275 277 274 271 269 281 287 287 284 287 286 288 287 287 291 290 289 291 293 294 293 292
281 282 299 306 310 305 299 291 294 292 290 293 297 295 298 296 294 295 294 296 293 296 293 290 289 289 290 289 287 287 287 285 286 285 284 285 285 288 290 291 290 290 292 287 289 288 292 278 278 279 279 279 284 284 286 286 288 287 286 283 285 285 282 282 278 278 281 275 276 275 273 281 285 285 287 287 286 286 286 287 289 289 290 291 292 292 292 292
285 286 296 304 307 304 294 286 286 289 291 294 294 294 298 297 296 294 293 296 294 293 291 289 292 293 290 290 289 288 288 284 286 287 286 286 288 292 292 290 292 290 291 288 289 290 284 281 283 273 272 277 278 283 285 284 287 282 282 284 284 284 281 280 277 275 277 277 280 277 275 282 287 284 287 284 286 287 287 288 288 291 291 290 291 291 291 292
285 286 289 295 303 301 291 290 289 290 291 291 292 291 293 295 297 298 296 294 297 295 293 291 293 293 292 293 291 291 292 288 284 288 286 286 289 291 292 291 292 291 292 292 295 293 288 282 282 276 276 274 271 276 278 280 283 283 280 282 286 287 283 283 280 277 277 277 279 276 279 286 287 287 288 286 286 288 289 286 286 288 291 292 293 292 292 292
282 278 285 289 297 297 296 295 293 291 291 291 289 291 293 291 295 297 298 296 297 296 297 295 295 295 292 292 290 291 291 292 288 285 286 286 286 288 293 291 292 291 293 295 293 292 283 283 284 284 282 280 282 280 281 284 281 283 281 285 284 286 286 286 280 278 280 281 276 280 284 286 285 286 287 289 285 289 288 287 290 292 292 290 288 288 289 291
286 279 282 279 290 291 291 295 291 289 288 293 286 291 289 291 292 293 297 292 297 296 295 295 293 292 291 292 290 290 291 291 291 288 285 284 286 288 291 292 293 293 294 293 293 288 284 284 285 284 284 283 281 282 283 287 286 285 285 283 285 285 284 285 284 283 286 280 279 284 285 282 286 288 287 287 288 288 288 287 288 289 290 291 291 289 292 291
281 284 282 285 281 280 286 287 292 290 288 291 288 291 289 289 290 288 293 295 295 297 292 293 294 295 294 291 291 286 289 289 288 285 287 286 288 288 291 291 291 292 293 294 294 291 286 285 284 284 283 282 283 285 284 285 285 285 285 284 283 284 283 283 285 288 285 282 282 286 284 284 287 290 288 287 289 290 290 290 291 291 288 288 291 293 294 293
289 286 284 286 281 280 287 288 291 291 289 289 287 288 288 289 288 291 291 291 292 291 294 288 291 293 293 294 292 289 289 285 286 289 285 285 286 285 285 289 293 290 292 292 292 290 289 285 284 284 282 284 284 284 285 285 284 284 282 282 284 284 284 285 286 287 286 284 286 285 283 284 288 288 289 289 288 290 291 289 289 290 291 291 290 291 292 293
283 284 281 283 283 281 282 285 288 289 287 291 286 286 287 289 288 290 290 291 287 290 295 291 291 292 292 293 293 290 291 292 292 288 286 289 286 288 287 288 287 287 288 290 292 291 290 285 288 286 284 283 284 284 283 283 284 283 283 283 284 284 285 285 285 285 285 283 286 286 285 285 291 291 291 292 293 292 291 290 292 292 291 290 290 291 293 293
288 286 286 281 280 280 282 283 285 286 285 288 286 287 285 285 288 292 290 293 292 290 292 291 292 291 292 293 293 293 295 294 294 294 293 291 288 291 289 289 292 287 289 289 289 290 289 283 285 285 283 283 285 284 283 283 283 284 285 285 285 285 283 283 283 284 284 285 286 284 283 286 292 291 292 293 291 291 293 293 293 293 293 290 290 291 291 293
287 288 286 285 277 284 279 280 282 285 281 287 287 287 287 286 285 291 287 290 293 294 294 294 292 292 290 291 291 293 296 295 295 295 296 296 295 293 295 293 294 290 287 288 286 288 287 286 284 284 283 284 285 284 284 284 284 283 284 287 288 288 288 287 287 287 288 289 284 284 286 292 293 291 290 293 292 291 292 293 292 292 291 291 291 292 291 291
Wind_Speed
12 11 11 10 9 9 8 7 6 6 5 4 3 3 2 2 3 3 3 4 3 3 4 4 4 4 5 4 5 5 4 3 1 0 1 2 1 3 3 2 2 1 2 1 2 1 0 2 0 4 2 2 1 1 1 1 1 2 1 4 1 2 0 2 3 8 1 8 5 3 4 7 3 1 0 2 6 3 2 4 3 4 5 3 3 2 10 10
14 12 11 9 10 9 8 7 7 6 4 4 2 1 1 2 2 2 3 3 3 3 3 4 5 5 5 5 5 5 2 1 2 2 5 1 2 2 2 1 1 0 2 2 3 3 2 1 2 2 2 1 1 0 1 1 1 2 2 2 2 4 1 3 1 3 2 4 7 5 3 7 5 6 2 3 0 2 2 2 3 3 5 5 4 7 12 10
14 12 11 11 10 9 8 7 7 5 4 2 1 1 1 2 2 2 3 3 3 3 3 5 5 6 6 6 6 4 0 1 1 1 1 2 2 1 2 2 2 1 2 2 2 4 2 1 0 2 1 1 3 1 2 0 1 1 3 1 1 6 1 1 1 1 3 4 6 5 3 3 1 4 1 2 5 1 6 4 1 1 1 3 4 6 10 10
14 13 12 11 10 10 8 8 7 5 3 3 1 0 1 1 2 2 3 3 3 4 4 5 6 6 7 7 7 3 1 3 1 1 1 4 3 1 2 2 2 1 2 3 4 2 2 3 2 3 1 2 2 1 1 2 2 1 3 2 3 4 2 1 0 1 2 5 8 5 2 1 1 4 4 4 6 3 4 6 9 10 9 9 7 8 9 10
14 13 12 11 12 9 8 7 6 4 3 2 2 1 1 1 2 3 3 3 4 4 5 6 7 8 8 8 7 0 2 4 3 1 1 3 2 2 2 2 3 2 1 4 6 3 2 0 2 1 2 2 1 1 1 1 1 3 0 2 2 2 1 2 2 4 1 4 7 4 7 5 1 1 3 9 7 6 8 8 9 9 14 13 12 10 8 10
14 13 12 12 11 9 9 7 6 5 3 2 1 1 1 1 1 2 3 4 4 4 5 5 7 9 8 9 2 0 1 4 0 0 3 3 1 2 1 2 3 3 3 3 1 1 3 2 3 1 0 1 3 4 2 1 0 2 1 0 1 2 2 1 0 4 3 4 5 6 3 3 4 1 2 7 8 3 7 6 11 7 16 16 12 12 10 10
13 14 13 12 10 10 9 7 6 5 4 3 2 2 2 0 1 2 3 4 5 5 5 6 7 9 10 5 1 2 2 2 1 2 2 2 2 1 1 1 4 2 2 2 2 1 2 2 2 2 3 1 0 1 1 1 2 6 3 0 1 1 3 2 1 3 2 9 5 2 2 4 3 4 1 4 6 5 2 3 3 7 8 10 12 13 16 16
13 12 11 9 10 10 9 7 6 5 5 3 2 2 1 0 1 2 3 5 5 5 5 6 7 8 8 0 0 1 1 2 2 2 4 1 2 1 2 1 2 2 2 2 3 1 2 2 3 1 1 5 3 5 0 4 3 2 1 1 1 1 0 1 1 3 3 2 1 4 4 2 5 1 1 5 8 5 5 1 5 10 10 9 11 13 10 10
12 10 10 12 11 9 7 8 6 5 5 4 1 1 1 2 2 4 4 4 5 5 5 5 7 8 3 0 4 4 2 1 3 3 1 1 2 2 3 1 0 2 2 2 0 3 3 1 1 4 2 1 1 4 0 5 2 2 2 4 1 0 0 0 2 1 1 0 1 3 1 2 3 3 3 8 6 6 2 4 5 9 11 11 12 14 12 12
12 12 12 11 11 10 9 8 6 6 4 3 2 1 2 2 3 4 4 4 5 5 5 5 6 7 2 2 2 3 2 1 3 1 1 2 3 4 6 1 2 3 2 0 3 3 1 3 2 4 4 2 2 2 1 3 2 3 5 3 5 0 1 1 1 0 0 0 1 2 1 1 2 3 7 3 5 3 5 5 4 10 12 12 11 11 12 13
14 14 14 12 11 10 9 9 7 6 4 3 2 2 2 3 3 3 3 4 5 6 5 4 5 3 1 1 5 5 1 1 1 2 1 3 3 4 2 2 2 2 3 1 3 2 2 5 3 3 1 2 3 1 0 1 4 5 7 4 5 3 0 1 1 0 0 0 0 3 1 2 3 2 8 4 1 7 9 5 5 5 9 10 10 11 10 11
13 13 13 13 11 10 9 8 7 5 5 5 4 4 3 3 4 2 3 4 5 4 4 4 3 0 0 3 4 2 1 3 3 2 2 2 1 6 6 4 2 3 3 2 1 2 4 3 5 1 2 1 2 1 1 1 3 4 4 2 3 5 1 0 3 1 0 1 2 0 1 1 1 5 8 1 1 5 7 7 6 7 6 7 7 8 7 12
13 13 13 12 11 10 9 9 7 6 6 6 5 5 4 4 4 3 3 4 5 6 4 4 3 0 1 2 2 4 1 1 2 4 2 2 1 0 0 1 2 3 3 4 3 4 4 3 4 6 1 4 3 2 2 4 1 3 5 5 3 3 2 2 1 1 1 1 3 0 2 7 9 14 3 4 4 2 5 6 6 6 5 5 6 8 9 8
12 12 12 12 11 9 10 9 8 7 7 5 6 5 5 4 4 3 3 6 7 6 3 3 2 0 1 1 2 3 2 1 0 2 0 2 2 0 1 1 1 1 0 2 1 3 2 1 5 5 2 4 2 0 4 2 3 4 1 4 1 1 2 2 1 1 4 0 4 1 2 7 6 9 10 7 5 6 6 6 6 6 5 5 5 7 9 10
12 11 11 10 8 9 10 10 8 7 6 6 6 5 4 4 4 4 6 8 8 3 2 4 2 1 1 0 2 4 5 0 2 1 1 1 2 2 0 1 2 3 0 4 2 1 2 3 3 3 1 1 2 4 2 2 3 2 4 2 2 2 3 5 0 5 4 1 5 4 1 8 9 9 6 6 3 6 6 6 5 6 5 6 5 7 8 11
12 11 10 10 8 10 11 9 9 8 7 6 5 4 4 5 5 6 8 8 7 5 0 0 0 1 5 0 1 3 1 2 3 1 1 1 1 1 1 3 0 2 1 1 2 3 3 6 6 2 2 3 8 7 4 3 1 4 3 1 1 1 3 2 0 0 3 1 1 2 5 4 4 3 2 5 2 1 5 5 5 6 7 7 8 8 9 10
11 10 10 11 11 10 10 9 8 7 4 3 3 3 3 5 7 9 9 5 1 2 1 0 0 0 3 1 2 0 2 3 2 0 2 0 1 3 3 2 1 1 3 1 6 3 5 4 3 2 4 5 3 6 7 2 1 2 2 2 3 2 1 1 3 1 1 2 2 1 1 6 4 7 8 7 2 2 3 5 6 6 6 7 6 6 8 10
12 11 11 11 12 11 11 11 9 7 4 4 4 2 2 5 9 7 3 1 0 2 1 2 1 1 2 2 2 4 1 2 0 2 1 0 2 2 2 2 1 4 3 2 4 2 2 1 3 5 1 1 1 4 6 6 8 5 1 0 2 0 3 2 2 1 0 2 2 0 3 10 12 9 9 9 3 2 5 6 6 7 7 8 7 8 9 10
13 12 11 12 12 12 10 9 8 7 5 5 6 7 6 7 4 3 2 1 2 3 1 2 3 5 4 9 3 3 2 2 3 2 1 1 1 2 3 3 4 5 1 3 1 2 3 4 5 4 5 2 6 7 6 2 7 8 7 5 3 2 2 2 2 2 1 1 3 3 7 8 10 9 10 10 3 5 8 7 7 8 7 7 8 8 8 10
13 13 13 13 11 10 9 7 7 6 4 2 2 3 2 3 1 2 3 1 0 2 1 5 3 2 1 4 5 1 0 2 5 2 1 1 0 2 2 2 3 6 4 5 1 1 1 5 6 7 9 9 5 8 5 3 7 5 4 4 2 3 1 2 1 1 1 1 5 7 6 6 11 12 12 11 4 3 6 10 11 9 9 9 9 10 11 10
13 12 13 11 8 9 8 8 6 6 4 2 3 2 4 6 8 1 1 3 1 2 1 2 2 2 0 3 1 5 7 1 2 0 0 0 0 5 1 2 2 3 1 3 5 1 4 4 6 8 7 8 8 4 6 6 3 7 6 5 1 1 1 1 0 1 1 2 2 1 4 9 11 12 12 8 3 9 10 11 11 12 10 9 9 12 12 13
13 12 12 11 10 8 8 7 6 4 2 3 2 2 0 2 0 1 5 2 1 1 3 2 1 3 1 1 2 2 4 4 0 0 1 1 1 5 2 4 3 8 0 2 4 3 2 6 8 8 5 3 3 5 4 6 5 2 4 3 3 1 2 2 1 1 1 2 7 2 5 12 10 11 12 8 11 8 6 8 9 8 8 8 10 11 11 7
12 13 12 12 10 9 8 7 5 2 2 2 2 2 1 1 1 2 3 5 2 1 1 0 1 2 1 4 1 1 3 3 6 3 2 0 1 1 5 4 3 4 1 3 8 4 2 6 10 3 4 5 3 4 6 5 6 6 4 1 4 2 1 1 3 2 2 1 2 2 6 13 8 6 11 11 5 6 8 8 10 8 9 11 13 12 10 11
12 12 12 11 11 11 10 7 4 2 0 3 3 3 0 2 4 3 1 2 4 1 0 1 2 2 3 5 3 3 5 2 5 9 2 4 6 2 5 4 5 3 7 5 8 10 7 1 0 4 4 4 6 2 7 6 2 2 3 3 2 1 1 3 0 1 1 1 2 3 6 10 4 4 2 2 2 4 5 3 6 9 9 12 9 7 9 14
13 11 12 11 10 9 8 7 3 2 2 1 0 2 1 2 2 1 2 2 2 1 1 2 2 1 3 1 1 4 1 1 0 0 1 4 4 3 4 2 4 5 5 4 6 4 3 3 2 5 3 2 5 2 4 8 1 1 2 3 2 3 4 1 3 3 6 2 2 3 4 5 4 6 8 10 4 5 3 3 7 9 8 7 10 15 9 5
6 11 11 11 9 9 9 2 1 2 3 2 1 1 0 2 1 1 5 4 2 2 2 6 1 3 2 1 1 1 3 1 1 2 2 3 2 2 1 1 2 8 3 6 7 3 4 1 2 6 5 4 3 2 2 3 5 2 3 4 4 6 4 2 0 3 1 1 1 2 2 8 6 5 6 6 4 7 9 5 10 9 8 5 8 7 5 5
10 4 11 11 11 9 3 2 2 4 3 1 0 1 1 0 1 0 3 5 3 4 6 1 2 1 1 2 4 3 6 4 0 3 2 3 1 1 5 3 1 3 3 2 4 3 1 1 5 4 5 3 4 1 2 7 7 1 1 5 6 6 4 2 2 2 3 1 4 3 3 2 10 7 4 3 2 8 9 11 10 7 6 8 6 6 6 6
11 10 4 13 13 8 1 2 3 3 1 0 1 1 1 0 1 1 4 3 3 3 3 2 1 2 1 0 4 3 1 5 4 2 0 2 1 2 3 6 6 6 2 4 7 2 2 2 3 3 2 3 5 3 3 4 4 2 2 7 4 4 3 5 2 2 1 2 7 3 0 1 5 8 4 2 5 6 9 10 9 8 7 6 6 7 8 7
11 10 7 10 11 5 1 2 3 2 1 0 1 2 1 1 2 6 4 2 0 3 4 5 4 1 2 1 3 1 1 4 2 1 2 1 3 2 2 5 5 6 4 4 7 1 2 2 4 7 6 4 2 0 2 5 4 0 5 7 6 7 6 3 3 1 1 1 7 2 3 2 9 7 5 2 1 6 5 7 7 7 8 6 4 3 4 3
11 11 9 5 7 0 1 1 1 1 2 1 1 1 3 2 2 2 3 6 3 2 1 1 2 5 3 8 1 1 3 2 1 1 2 3 2 3 1 3 4 4 3 6 6 4 1 2 5 3 3 3 4 1 1 1 2 6 6 7 6 8 4 3 7 2 1 3 7 7 3 3 6 6 5 3 3 3 1 4 4 5 4 4 2 2 2 3
12 11 10 2 4 2 2 0 0 0 2 2 2 3 2 6 4 4 5 7 3 1 1 1 2 3 10 13 8 1 4 1 1 5 3 1 1 3 1 4 4 6 5 5 3 5 2 2 1 1 3 3 3 5 5 2 3 5 2 3 5 2 7 3 4 5 1 6 5 2 3 2 6 6 5 8 4 3 1 2 3 2 2 2 2 2 2 2
9 10 10 3 1 1 2 1 2 1 2 2 3 4 4 3 2 7 4 1 1 5 5 4 1 4 9 3 5 3 5 3 0 4 8 5 6 6 6 7 5 5 3 4 3 1 2 2 2 4 3 7 4 8 5 5 4 6 6 7 5 3 5 3 3 2 5 6 0 2 2 1 11 9 7 9 9 3 5 6 2 2 0 1 2 3 2 3
9 7 6 3 3 1 0 0 1 1 2 4 3 4 4 4 8 8 1 3 1 4 5 4 6 7 5 6 5 2 1 6 1 0 3 1 6 4 2 3 5 6 8 4 4 2 3 2 2 2 3 2 6 9 2 3 0 6 7 6 5 1 1 4 4 2 6 5 5 1 1 5 3 6 13 16 9 4 5 4 4 4 2 1 2 4 4 3
9 5 1 1 1 1 1 2 1 0 1 3 4 5 3 4 8 4 3 2 1 1 5 3 5 5 11 9 7 7 3 2 6 3 3 4 4 6 5 2 3 2 7 2 8 7 3 3 6 5 1 1 3 7 12 9 9 9 3 10 9 8 5 4 3 5 6 4 3 4 1 6 1 0 1 6 5 3 4 5 4 4 7 5 5 5 6 4
7 4 1 1 1 2 0 1 1 1 4 4 4 6 9 11 1 6 5 2 1 2 3 3 10 9 3 2 1 3 3 2 2 5 4 8 7 6 9 8 2 6 3 9 3 2 7 3 5 3 1 6 8 2 3 6 2 0 3 6 5 7 5 1 5 2 1 1 2 1 6 4 4 3 8 6 6 5 2 4 1 2 3 3 4 4 4 3
3 2 1 1 0 0 1 1 0 2 4 5 7 6 13 7 3 1 4 4 2 5 5 5 4 6 3 3 1 6 2 4 4 3 1 4 2 8 4 4 8 9 8 8 4 2 3 4 1 3 5 6 5 3 2 4 6 4 4 5 6 3 6 4 1 1 1 3 9 2 8 6 8 6 9 7 5 7 1 2 2 4 4 3 4 4 4 4
2 1 2 1 0 0 2 2 2 5 5 4 9 13 5 1 1 4 2 3 4 12 6 10 5 6 6 6 5 6 2 4 3 5 5 2 3 4 3 5 3 6 7 10 1 3 9 5 1 4 4 1 0 1 2 3 3 7 3 8 1 2 3 4 5 2 1 4 8 2 8 4 3 7 4 2 2 6 3 3 2 2 1 1 2 4 3 3
1 1 1 0 2 3 3 2 4 5 4 3 12 13 3 3 0 0 1 0 4 1 6 5 2 8 4 6 4 7 3 7 6 2 4 5 4 6 6 2 5 10 10 2 4 3 6 1 1 1 1 5 3 1 1 1 1 4 4 3 6 3 2 2 4 3 1 2 6 4 3 5 9 9 4 3 2 6 5 4 4 1 1 2 2 0 1 2
1 1 1 2 2 5 3 3 5 6 5 4 7 10 1 2 0 0 1 0 0 3 7 5 5 3 6 6 4 4 6 7 7 7 7 3 5 4 13 7 4 7 8 6 2 1 2 5 3 1 2 1 1 4 10 4 2 1 3 3 1 3 2 5 6 4 5 5 0 9 2 10 4 6 7 7 7 7 5 1 2 2 0 2 0 3 2 1
0 2 1 0 2 5 5 4 5 6 4 7 6 3 2 1 3 3 2 3 1 1 3 4 1 6 4 5 8 9 5 5 10 6 4 3 7 2 5 6 5 5 9 7 4 3 3 1 5 1 3 2 3 5 9 10 8 3 2 4 1 0 2 4 1 4 4 4 5 3 7 7 7 6 8 10 8 3 1 2 4 1 3 3 1 4 4 3
0 2 1 1 3 4 6 4 6 9 6 2 3 3 1 2 1 2 4 4 1 1 1 2 4 5 6 4 3 3 4 5 7 7 4 3 8 3 5 7 4 4 4 2 4 2 2 2 7 1 1 4 7 3 5 12 14 12 13 11 11 8 4 4 8 2 1 2 5 2 12 5 6 2 7 6 5 4 4 7 4 3 3 3 0 3 5 4
2 3 1 5 2 5 6 6 2 4 4 8 9 6 3 4 0 4 1 0 3 1 1 1 0 2 3 4 4 7 6 5 5 5 3 7 5 2 1 5 5 9 10 7 10 4 5 3 8 4 8 10 6 1 3 4 1 0 3 7 6 5 5 5 6 5 1 3 4 3 0 12 7 6 5 5 5 6 6 4 2 2 1 0 1 1 2 3
2 1 2 1 6 4 4 2 2 3 4 3 5 3 2 2 3 2 3 0 0 2 1 0 3 2 1 2 1 3 7 4 7 8 4 4 3 7 3 2 5 7 8 1 2 2 6 3 4 1 2 4 3 3 1 1 2 3 2 2 4 6 6 7 6 7 8 2 1 2 3 8 3 1 4 3 4 2 0 2 1 4 1 0 1 3 4 4
1 0 1 2 1 1 4 8 9 9 5 2 6 4 4 3 4 2 4 5 6 3 2 1 0 0 1 1 2 6 5 4 2 5 1 2 3 1 3 6 8 5 8 7 9 7 5 4 8 3 1 2 4 3 1 2 1 3 3 2 3 3 3 2 4 1 2 7 8 7 10 12 1 2 1 2 2 2 1 1 1 4 1 1 2 2 2 4
1 1 1 2 2 1 6 1 4 5 5 7 7 8 7 3 4 6 7 8 4 2 1 2 2 1 1 1 1 2 1 2 2 2 2 2 3 1 4 7 1 5 3 3 2 7 6 5 8 7 11 11 9 10 11 8 7 3 2 4 7 9 6 4 5 1 6 5 7 5 10 9 1 0 2 6 5 5 5 4 3 1 1 6 10 9 9 8
0 3 2 2 2 0 2 2 1 4 7 7 6 5 6 5 1 1 7 3 8 3 2 1 3 5 2 3 1 0 3 0 2 3 4 3 2 1 2 4 4 2 0 3 3 8 3 2 7 11 13 13 12 6 2 6 4 7 4 9 6 7 9 7 4 6 13 7 5 8 12 16 9 3 1 1 3 1 3 5 5 7 7 2 2 3 4 5
1 2 4 3 2 3 1 3 3 2 7 8 5 4 8 7 2 0 2 1 3 5 3 4 2 3 2 2 3 2 1 1 1 3 3 3 2 1 1 2 3 5 3 1 3 4 3 4 7 7 8 6 5 3 5 10 10 9 9 8 10 9 9 11 11 14 8 2 12 11 9 8 19 11 6 2 1 6 5 3 4 5 5 5 5 5 7 6
2 3 2 3 4 6 7 6 7 6 1 5 4 3 8 9 5 5 1 2 2 3 4 0 5 10 8 11 6 4 4 2 3 3 2 1 2 2 1 3 2 5 2 1 1 4 5 7 3 4 3 3 4 5 6 4 5 6 9 7 9 9 8 13 16 18 7 9 17 15 7 12 19 14 3 5 8 7 5 6 7 5 3 5 7 8 9 8
1 1 3 2 1 2 7 2 8 6 7 7 2 4 7 10 12 8 4 3 2 1 4 5 11 12 13 11 9 7 6 5 7 5 3 4 5 2 0 1 1 6 2 1 2 1 3 3 3 2 3 2 4 4 1 5 1 2 4 6 8 10 13 16 17 15 12 10 10 10 2 12 13 5 7 4 5 4 4 4 3 2 7 6 5 7 9 9
4 2 3 1 1 2 0 4 8 7 8 7 5 6 5 12 14 7 3 7 4 5 6 8 6 8 8 11 12 12 12 12 11 9 4 6 3 3 4 4 2 3 3 1 1 2 4 3 5 1 1 4 6 4 4 4 4 2 4 4 7 10 11 12 8 4 3 5 10 13 11 15 13 2 4 8 7 6 6 5 8 7 2 2 6 8 9 10
1 1 1 2 1 2 2 2 5 9 7 8 6 7 3 6 12 11 4 4 11 7 8 15 7 5 4 8 9 11 8 11 10 7 9 9 7 6 5 4 4 3 2 1 1 1 1 2 2 2 2 4 4 5 5 4 2 4 6 7 10 10 8 4 6 6 7 12 10 4 8 16 11 1 6 3 5 5 9 8 5 4 1 4 7 7 8 8
1 1 2 2 1 2 4 1 2 6 8 11 12 11 7 9 2 7 3 4 6 9 11 14 8 8 5 9 12 14 9 6 6 3 5 10 6 2 10 5 11 10 5 5 1 3 3 4 4 3 4 8 2 3 4 5 2 4 11 17 17 8 6 5 4 6 11 8 5 8 15 13 7 2 4 10 5 6 7 7 4 1 2 5 6 5 4 5
Wind_Direction
157 156 159 177 186 181 171 172 180 190 184 175 153 147 124 124 65 56 47 60 58 28 349 333 335 323 317 328 331 331 334 128 86 52 140 240 134 162 167 105 108 233 68 83 40 100 329 17 24 334 40 76 281 102 276 45 89 58 92 114 65 193 119 189 183 190 223 134 211 184 186 112 127 313 223 77 40 74 27 54 322 12 27 308 290 134 132 143
156 160 171 177 187 180 179 178 180 187 174 164 150 135 109 82 51 36 36 42 48 31 353 334 325 325 321 323 327 335 15 103 107 121 218 153 206 146 133 143 180 65 123 66 104 109 114 29 8 59 80 142 321 64 13 224 77 106 129 88 208 197 245 155 222 211 137 180 177 183 177 145 197 141 222 102 224 115 76 1 11 27 3 25 55 118 132 147
157 165 172 184 175 182 181 177 181 177 173 160 166 149 101 63 44 21 4 11 22 28 360 334 329 326 325 317 314 331 315 52 95 227 245 199 178 187 151 173 210 178 178 149 190 140 141 182 145 94 27 109 3 186 43 207 99 219 120 142 244 205 228 207 200 228 256 160 146 142 223 134 207 147 162 162 169 117 159 165 337 106 179 145 128 138 148 157
162 164 172 184 180 185 177 186 180 172 177 165 170 224 37 20 3 14 351 342 6 12 355 340 331 328 324 314 312 314 89 83 197 239 271 210 201 182 193 200 200 172 92 87 140 105 102 80 101 116 80 82 298 58 118 261 101 232 75 157 214 200 101 324 356 291 290 162 155 155 100 176 226 195 150 161 118 260 251 219 166 199 178 177 174 160 160 165
162 165 174 178 185 173 186 188 178 178 194 197 158 171 11 325 340 335 335 337 347 356 352 338 333 323 322 313 313 101 95 85 227 219 273 189 200 205 194 203 180 166 176 137 83 70 90 107 101 62 96 208 10 32 252 265 147 83 142 215 175 103 89 254 284 327 89 80 108 118 131 213 103 61 129 146 157 216 211 219 218 180 168 160 173 180 167 172
164 167 170 181 174 180 193 186 184 192 202 208 198 208 226 259 288 322 333 339 341 348 344 338 327 325 318 315 329 105 99 157 227 314 169 219 243 226 201 202 173 141 124 82 119 99 112 15 82 108 11 91 190 143 265 162 139 119 311 289 209 220 144 223 322 330 146 109 126 141 197 94 139 206 183 169 181 231 218 200 200 167 174 178 159 157 172 177
166 167 172 173 171 188 187 180 195 198 206 205 211 193 220 238 304 330 333 339 347 349 344 332 326 320 320 332 290 97 131 245 16 249 162 197 248 198 233 124 139 132 155 94 37 86 80 88 88 180 95 60 272 152 223 161 37 104 186 224 357 140 131 171 139 53 107 124 163 186 84 148 143 164 167 185 241 225 243 204 204 164 150 138 156 180 178 183
166 167 171 156 170 178 183 181 201 204 193 205 216 226 214 243 3 327 346 340 340 341 335 330 320 314 335 280 109 11 42 261 233 258 220 181 5 304 108 120 126 129 115 149 143 106 131 81 140 145 91 145 213 152 65 79 22 108 104 242 234 50 357 359 93 64 68 57 19 110 125 218 177 177 105 241 235 239 252 41 100 134 144 159 167 179 190 193
164 162 153 155 159 168 180 192 195 207 204 187 205 281 328 6 355 359 334 338 333 328 320 321 314 313 313 315 123 104 252 236 196 322 184 104 21 63 120 203 135 133 148 117 181 169 122 251 100 180 236 187 196 120 297 123 307 160 169 147 84 54 5 354 60 35 78 119 55 88 262 306 265 263 242 231 242 217 134 80 117 129 145 169 183 185 185 195
158 148 149 156 165 169 176 188 194 206 210 211 194 279 310 340 344 344 338 333 325 313 304 307 313 318 337 114 50 145 251 254 288 292 177 142 59 87 58 148 134 101 126 336 95 111 112 204 152 187 124 89 113 101 114 107 214 148 111 127 128 139 91 333 144 298 272 79 311 154 263 313 341 40 281 277 232 107 116 133 150 146 169 182 185 190 195 193
161 157 160 164 164 174 174 178 192 211 214 241 266 282 260 297 320 318 334 325 312 286 283 298 313 354 214 92 128 204 198 66 256 343 70 134 90 132 184 166 157 86 109 70 164 182 164 154 163 106 76 207 107 340 80 217 118 103 132 90 35 348 47 43 70 281 58 31 113 135 160 344 314 69 244 248 188 166 149 164 171 180 178 186 192 194 200 204
160 164 162 159 164 176 179 181 190 212 217 231 241 247 252 267 272 299 315 325 288 278 286 296 321 14 306 75 147 199 220 237 330 331 39 126 174 190 196 182 162 160 148 156 237 246 165 159 126 121 188 135 79 89 84 162 88 150 113 87 321 10 38 266 153 232 82 258 148 118 75 309 264 222 238 259 93 174 167 177 189 196 198 195 195 199 203 213
160 165 164 160 166 178 189 188 188 201 215 220 228 235 240 259 266 286 317 299 286 275 288 292 351 110 112 118 239 244 277 290 343 11 73 62 76 324 195 181 188 157 166 135 191 223 200 139 117 86 159 102 157 116 184 82 109 116 39 126 24 7 354 290 290 22 119 250 77 338 279 263 241 238 242 298 349 116 174 186 200 209 207 206 201 205 217 227
160 167 165 163 168 186 195 189 189 193 205 209 222 233 243 257 277 300 290 273 276 276 280 313 69 75 151 236 283 265 297 275 295 61 35 308 117 310 48 38 105 122 15 130 159 148 136 144 107 118 118 100 148 298 75 356 33 150 221 63 120 67 256 300 187 196 139 103 79 85 185 288 276 275 278 284 238 181 205 209 197 210 218 218 215 219 223 228
162 163 169 167 166 193 190 189 185 193 197 201 215 233 247 282 296 302 278 266 264 252 22 31 95 124 73 246 307 275 282 95 40 252 274 130 132 70 3 51 73 17 135 124 141 177 119 93 69 48 73 306 77 81 27 31 7 47 70 290 327 138 274 297 359 154 158 334 74 88 321 246 273 282 289 296 207 182 199 213 216 210 221 225 226 227 234 235
160 164 169 155 172 192 192 182 183 191 189 205 219 241 283 290 295 281 263 250 253 257 175 51 43 117 108 30 204 316 32 128 189 260 277 116 126 156 165 140 193 21 82 6 75 101 46 91 76 176 130 35 62 96 62 51 337 1 106 238 239 87 250 350 101 177 147 116 10 149 222 322 318 263 275 335 89 162 198 237 239 231 224 219 214 218 228 244
160 164 164 158 177 193 185 180 195 194 212 221 237 271 286 284 277 258 242 229 282 105 150 135 116 155 143 256 320 135 210 235 309 15 30 88 122 154 93 60 50 69 27 42 23 61 356 65 303 49 36 115 137 103 83 13 322 266 25 174 208 160 215 282 297 11 52 133 225 49 192 236 241 272 291 312 24 134 226 245 250 248 245 240 239 233 229 229
157 165 164 169 175 180 178 183 190 196 215 231 236 216 240 240 249 244 190 36 319 134 200 194 115 71 276 345 163 219 176 115 120 180 216 256 106 94 97 93 39 83 47 52 360 79 339 65 29 180 20 29 101 67 115 205 186 199 205 121 284 6 174 213 141 254 46 31 192 333 232 270 268 275 291 285 299 258 248 238 237 238 241 249 247 245 243 240
166 170 168 172 179 187 183 192 187 196 207 218 233 231 236 253 233 208 118 95 100 58 90 206 130 147 204 208 226 78 79 188 116 77 175 48 342 110 71 86 84 112 109 72 257 105 354 72 35 57 162 147 194 159 158 208 157 180 174 170 151 149 211 217 242 273 139 232 275 228 230 252 271 285 283 287 261 229 249 267 271 262 255 253 249 249 245 245
174 173 173 177 185 184 189 190 197 193 181 62 148 147 130 160 202 85 348 356 240 180 215 189 132 166 43 35 131 271 174 42 127 324 312 298 95 82 31 76 30 58 103 157 179 83 105 117 171 184 199 199 188 176 166 164 150 113 88 104 167 166 274 271 284 259 124 84 245 241 258 264 271 265 267 269 295 251 255 256 252 251 248 247 249 246 245 242
176 173 179 183 180 187 186 192 192 192 176 139 155 163 169 179 118 203 225 257 205 243 59 160 155 161 249 135 132 150 120 353 50 70 243 327 129 109 208 46 34 88 52 181 137 294 65 114 227 214 208 184 192 155 99 74 47 126 119 108 104 129 163 232 175 344 315 135 291 5 305 266 258 266 261 264 285 264 238 242 248 246 240 245 243 250 246 244
177 175 180 185 185 178 182 188 187 185 179 154 188 164 182 176 136 184 120 165 246 333 71 142 98 48 348 80 203 152 69 91 103 336 299 123 359 123 266 102 142 159 191 103 46 47 56 176 233 222 203 119 94 136 124 129 116 45 141 162 98 268 230 300 301 310 303 83 263 357 323 279 265 260 266 244 234 242 238 223 238 240 251 245 247 249 255 268
177 182 179 181 183 180 177 184 188 155 87 138 127 106 167 203 127 146 96 106 108 301 99 112 90 93 33 328 278 12 99 142 178 239 233 74 93 168 145 109 111 131 67 127 141 114 97 286 240 222 136 115 59 119 112 74 65 108 92 85 229 246 99 292 282 353 353 116 292 327 305 284 284 272 259 259 230 250 245 232 242 233 238 238 236 232 238 247
181 181 178 181 178 182 178 175 136 80 297 174 131 156 200 104 112 100 65 139 170 264 145 233 144 158 170 147 211 111 138 211 122 195 283 119 154 183 104 145 131 112 174 154 147 154 186 229 315 121 141 120 129 106 128 140 160 357 120 125 131 165 210 152 267 315 337 46 60 355 311 294 327 343 331 316 293 268 281 274 267 265 237 245 260 276 235 237
185 175 179 173 182 176 172 120 65 216 171 92 289 253 305 139 123 205 85 23 22 2 330 330 133 231 192 30 50 150 233 73 307 216 186 133 155 94 201 176 105 185 162 164 116 131 272 263 121 87 87 77 107 97 165 137 148 346 230 169 183 162 133 278 2 52 19 353 331 40 353 300 294 291 255 278 334 310 278 335 279 258 256 245 246 242 254 271
81 183 173 173 173 175 164 92 254 187 127 167 220 302 21 102 92 128 95 72 224 248 31 200 105 220 130 215 61 177 102 170 273 235 115 205 174 141 92 116 117 190 154 141 157 176 200 11 141 152 123 110 101 143 220 118 158 108 260 155 150 137 122 129 358 69 324 221 305 56 145 271 311 288 283 293 340 300 310 289 273 271 268 265 254 268 294 251
39 77 177 165 173 161 148 138 190 118 110 280 274 339 301 58 285 155 65 13 332 196 153 274 75 220 44 195 140 109 131 233 88 47 64 340 157 342 125 208 45 45 145 149 51 234 97 40 71 63 86 94 115 126 219 130 110 219 235 119 110 105 125 162 110 145 215 252 298 39 115 209 300 286 258 276 324 303 303 288 282 285 284 271 264 260 256 247
33 27 146 171 169 167 226 126 117 153 174 224 305 357 5 231 123 63 79 102 254 141 137 241 225 340 69 343 78 143 218 163 97 235 188 303 96 358 99 197 163 164 164 99 175 259 149 174 129 98 75 95 171 208 167 123 114 220 185 133 150 148 151 117 94 119 40 41 286 327 255 275 257 265 303 353 329 313 291 286 297 308 301 287 278 261 244 246
26 23 16 170 161 154 87 119 126 119 205 205 47 42 98 98 86 106 120 145 250 83 280 108 273 82 15 63 53 71 72 4 134 209 318 29 25 150 92 212 133 113 39 133 174 237 3 163 211 144 126 181 227 239 197 121 82 220 130 88 85 77 68 93 96 97 333 38 268 247 197 213 277 276 339 324 257 275 270 285 297 301 300 303 281 287 316 341
18 14 18 162 146 35 335 49 81 132 124 81 61 94 66 64 83 101 105 233 126 207 87 191 147 196 136 138 34 6 115 352 80 60 37 147 313 35 33 144 118 74 40 19 82 189 241 306 178 87 175 187 137 52 137 80 110 127 76 68 26 37 25 23 61 87 55 271 251 236 256 169 282 275 225 169 212 192 262 309 304 317 338 346 342 325 354 342
12 7 14 103 139 191 156 42 110 223 108 97 89 70 76 40 128 115 193 225 60 77 45 115 177 81 145 157 158 323 84 42 87 143 116 2 15 42 162 42 44 60 57 19 41 330 11 356 93 313 82 103 99 81 14 60 72 108 83 115 54 344 14 28 345 37 163 268 265 249 210 114 196 290 280 241 275 236 181 304 299 325 337 338 328 320 313 315
5 7 6 42 326 330 139 214 178 179 116 139 82 91 101 101 338 190 201 12 143 193 150 182 271 145 168 119 79 147 137 49 354 156 148 169 154 148 208 156 151 108 181 171 180 334 52 93 284 337 189 122 103 82 354 14 13 76 83 56 111 249 36 298 17 240 222 212 255 331 169 317 236 232 271 284 254 238 215 221 236 218 236 299 303 285 285 300
357 10 353 32 1 83 161 125 127 121 83 89 72 63 95 122 199 210 107 216 234 131 236 121 165 158 143 113 156 141 42 140 226 139 104 96 146 235 232 155 187 136 184 227 96 93 270 292 354 289 14 232 131 121 147 92 46 102 136 136 109 160 155 250 275 242 301 290 266 316 311 261 246 272 231 239 258 171 211 237 227 216 218 238 265 292 306 312
346 343 51 345 14 8 310 72 63 10 57 53 91 86 51 154 232 115 139 191 176 45 102 124 101 95 155 165 195 166 97 308 153 185 144 153 133 188 250 284 134 53 79 168 154 184 117 303 260 137 237 175 179 161 173 169 173 203 123 155 180 149 159 209 194 214 222 214 293 280 60 235 91 258 268 243 257 259 285 299 273 248 247 264 277 289 299 314
346 344 71 321 52 16 32 48 95 95 85 80 96 158 177 214 96 161 176 178 249 63 56 141 125 135 182 25 219 232 137 156 184 128 167 149 202 189 186 203 228 111 142 131 248 88 205 204 262 226 300 160 180 246 113 91 61 284 148 78 94 226 136 199 209 159 241 327 340 241 217 194 165 269 286 246 283 295 217 257 345 293 302 345 341 305 288 283
52 329 16 1 42 247 98 337 37 84 100 111 136 178 209 191 193 178 192 161 123 119 127 65 72 133 170 137 297 202 309 114 213 113 227 201 198 186 202 179 188 186 156 165 176 149 47 257 305 301 43 170 192 134 187 147 180 230 112 208 212 161 104 84 38 359 103 33 255 151 302 290 297 317 277 315 324 287 344 244 232 288 302 354 325 295 292 287
33 1 42 2 47 207 132 81 65 66 81 122 160 204 200 31 198 172 329 147 184 135 134 133 226 137 176 189 178 196 219 81 181 130 215 162 284 203 206 248 184 178 200 130 260 200 151 232 304 135 221 313 152 145 97 30 149 97 188 234 178 111 114 137 218 345 51 201 267 103 237 299 19 285 323 7 238 265 319 324 23 171 302 346 276 272 280 286
23 48 109 265 200 140 90 115 82 45 73 125 202 196 10 149 241 73 293 61 92 84 126 143 227 111 200 142 211 176 220 144 200 157 187 186 239 189 158 182 205 188 205 260 146 234 126 226 307 339 112 285 341 124 342 353 42 144 195 200 117 253 232 304 90 257 160 276 273 288 259 250 205 247 331 21 197 207 239 328 6 80 140 219 222 305 309 304
26 93 87 253 173 129 123 137 96 77 53 186 223 206 245 231 250 234 346 53 129 132 149 217 129 227 143 185 166 166 167 176 174 189 151 231 196 207 185 164 215 201 194 160 161 184 138 169 282 333 136 310 26 110 200 200 21 62 76 84 120 100 170 138 202 172 124 243 54 289 36 259 192 217 192 224 231 237 261 33 156 184 238 276 25 125 211 248
46 59 279 283 134 130 139 131 100 77 81 214 213 239 80 259 255 250 292 30 349 85 204 159 237 130 166 196 156 165 217 160 164 206 174 208 192 279 191 211 177 195 175 179 161 155 175 143 216 288 303 86 183 204 209 156 158 153 144 191 196 12 231 110 68 136 178 177 183 257 304 271 264 211 177 209 228 242 250 199 188 223 260 266 227 162 200 240
12 107 238 77 133 145 108 90 130 159 170 256 326 257 58 213 306 250 131 115 103 285 171 156 157 156 176 118 208 180 151 154 174 176 185 218 183 224 223 185 137 151 122 132 180 201 107 164 182 149 113 227 244 252 176 182 189 181 175 197 181 132 143 161 256 29 115 138 236 149 262 261 255 172 193 194 219 190 196 160 214 249 257 258 241 181 192 219
83 115 228 143 190 164 130 136 168 142 154 178 200 175 204 267 216 280 85 68 60 11 350 98 38 129 138 157 160 169 141 166 173 170 231 175 218 154 291 160 166 150 142 178 191 236 153 135 109 176 201 201 217 238 252 239 352 168 164 226 180 172 112 138 191 256 7 252 117 184 14 282 183 183 184 171 163 180 196 161 200 220 252 281 296 297 265 249
61 188 313 176 185 182 128 143 126 154 174 192 99 154 222 192 200 205 179 7 310 158 350 71 203 113 253 131 165 139 158 171 165 197 184 188 236 202 212 139 133 151 137 204 126 210 97 94 112 287 315 317 318 315 5 80 177 286 295 122 133 192 178 177 170 186 177 202 199 259 250 257 8 8 158 159 201 203 205 147 171 137 187 298 323 303 309 309
114 51 34 343 353 287 168 181 187 187 177 146 153 178 193 185 170 151 197 193 181 145 184 179 326 192 165 116 114 171 193 153 233 160 273 216 199 187 32 29 164 165 155 213 165 211 167 262 146 135 24 340 346 340 337 324 123 186 186 206 172 123 90 139 102 100 196 218 187 161 235 261 284 327 187 27 62 57 30 304 89 52 322 219 285 245 251 328
107 346 358 318 39 210 196 225 164 162 162 163 169 179 174 196 214 198 178 198 183 154 131 249 173 110 36 349 75 88 203 151 146 227 126 181 203 1 357 44 259 175 206 262 176 173 177 180 149 166 192 196 205 196 209 213 201 230 203 193 194 165 153 119 212 165 219 250 167 201 244 247 152 334 66 32 13 20 356 349 318 126 24 3 349 349 348 353
267 143 273 1 33 238 328 59 75 166 173 169 180 193 165 191 229 191 160 215 196 189 201 91 45 79 53 50 45 212 207 6 113 192 146 197 260 333 237 334 80 163 88 114 171 144 174 182 187 194 197 211 214 209 257 118 112 179 238 181 202 198 186 177 119 177 216 216 183 236 228 258 244 195 177 56 13 40 305 329 339 325 326 293 233 271 298 300
359 114 163 195 26 303 235 153 159 180 188 172 193 160 195 193 154 349 153 150 206 186 183 199 156 155 220 124 185 236 270 62 2 93 188 157 257 233 309 93 114 52 339 203 25 81 100 187 224 201 227 226 170 180 195 163 178 208 187 199 195 183 184 182 189 223 207 204 253 230 230 243 260 233 221 248 310 295 290 283 287 298 295 290 284 282 285 293
123 253 116 217 126 203 191 226 187 167 265 178 211 167 190 183 184 185 139 243 139 175 159 324 181 211 196 194 163 185 173 203 147 211 156 233 120 330 100 351 67 308 344 102 48 131 151 195 241 132 236 175 156 128 142 171 191 190 200 182 187 196 179 193 217 225 185 197 231 243 177 226 251 258 172 202 222 225 230 239 233 230 279 303 288 288 293 293
292 2 250 323 167 270 199 53 165 172 183 172 209 160 182 189 197 192 159 146 119 249 207 192 204 199 201 205 197 212 180 168 244 225 161 194 190 116 145 330 283 22 44 95 52 163 102 260 180 124 153 185 214 162 152 120 150 90 146 182 188 177 202 207 218 224 213 225 248 272 238 238 254 276 115 209 235 236 240 232 274 272 246 253 299 295 285 282
200 144 291 325 132 50 141 117 164 185 201 185 187 224 192 192 199 178 163 157 178 213 177 225 207 182 184 188 193 209 207 208 211 209 183 163 233 201 218 190 156 359 12 149 113 324 132 262 101 127 155 239 231 173 137 160 139 215 239 204 201 203 214 218 228 241 100 283 272 266 276 275 258 200 226 219 235 265 282 268 244 247 287 255 249 256 267 273
184 134 143 101 101 250 109 124 155 176 193 205 218 225 189 215 207 178 200 187 186 173 176 208 192 153 182 186 199 215 205 205 222 213 182 162 209 208 145 261 132 138 129 115 37 320 103 214 53 90 186 278 222 183 194 111 135 208 254 233 222 215 219 201 202 201 189 223 237 285 281 259 271 142 260 260 137 226 254 264 284 320 326 219 228 242 250 263
82 310 88 103 56 249 158 207 105 141 216 209 203 200 194 211 162 154 198 263 218 194 184 196 172 148 192 189 208 218 209 189 206 226 197 188 192 131 190 199 170 167 200 166 339 120 129 120 120 117 196 240 259 135 193 143 114 260 239 236 227 219 211 215 222 199 209 198 209 225 244 254 271 189 262 280 220 221 274 293 340 20 245 237 244 264 302 304